www.pogodaiklimat.ru

Погода и климат >> Архив погоды >> Аргентина >> Las Lomitas


ПОГОДА в Las Lomitas

  • Прогноз погоды в Las Lomitas
  • Монитор погоды в Las Lomitas
  • Климат города

АРХИВ ПОГОДЫ в Las Lomitas

Время (UTC), дата Ветер
(напр.,м/с)
 
Видим.   Явления Облачность Т
(С)
Тd
(С)
f
(%)
Тe
(С)
Тes
(С)
Комфортность P
(гПа)
Po
(гПа)
Тmin
(С)
Tmax
(С)
R
(мм)
R24
(мм)
S
(см)
12 20.05 штиль 0 20 км ясно +9.2 +8.0 92 +8 +11 1022.1 1006.4 +7.0
15 20.05 СЗ 1 20 км ясно +18.8 +8.0 49 +20 +32 1021.2 1005.7
18 20.05 ЮЗ 1 20 км ясно +21.2 +6.9 40 +22 +31 комфорт 1017.9 1002.4
21 20.05 С 1 20 км 3/0
[Ci fib]
+19.6 +9.6 52 +22 +22 комфорт 1018.1 1002.5
00 21.05 штиль 0 20 км ясно +13.4 +9.7 78 +13 +13 1016.7 1001.0 +9.2
09 21.05 штиль 0 20 км ясно +8.8 +7.5 92 +8 +8 1017.6 1002.1
12 21.05 ЮВ 1 20 км 5/0
[Ci]
+11.4 +7.9 79 +11 +13 1021.5 1005.7 +8.2
15 21.05 ЮВ 1 20 км 5/0
[Ci]
+20.2 +10.3 53 +23 +33 комфорт 1021.8 1006.4
18 21.05 СВ 1 20 км 4/0
[Ci]
+23.0 +10.0 44 +25 +34 комфорт 1017.1 1001.6
21 21.05 ЮВ 1 20 км 5/0
[Ci]
+21.0 +9.6 48 +24 +24 комфорт 1017.7 1002.1
00 22.05 штиль 0 20 км 5/0
[Ci]
+14.4 +10.2 76 +14 +14 1019.5 1003.8 +11.4
09 22.05 штиль 0 20 км ясно +10.1 +8.5 90 +9 +9 1020.8 1005.3
12 22.05 штиль 0 20 км ясно +13.4 +8.0 70 +13 +15 1022.7 1007.0 +10.0
15 22.05 В 1 20 км ясно +20.8 +9.8 49 +24 +35 комфорт 1022.9 1007.4
18 22.05 ЮЗ 2 20 км 3/0
[Cs]
+22.0 +9.0 43 +23 +30 комфорт 1021.1 1005.7
21 22.05 ЮВ 1 20 км 4/0 <50 м
[Ac trans Cs]
+19.8 +10.7 56 +22 +22 комфорт 1021.2 1005.6
00 23.05 ЮВ 1 20 км ясно +16.0 +11.2 73 +17 +17 1022.2 1006.5 +13.4
09 23.05 Ю 1 20 км 5/0
[Ci]
+9.8 +8.2 90 +9 +9 1022.2 1006.6
12 23.05 Ю 1 20 км ясно +21.6 +9.7 47 +23 +25 комфорт 1021.1 1005.6
15 23.05 В 1 20 км ясно +19.6 +9.6 52 +22 +33 комфорт 1024.3 1008.9
18 23.05 Ю 1 20 км ясно +21.6 +9.7 47 +23 +32 комфорт 1021.1 1005.6
21 23.05 штиль 0 20 км ясно +19.4 +10.0 55 +20 +20 1021.5 1005.8
00 24.05 штиль 0 20 км ясно +14.4 +10.2 76 +14 +14 1023.2 1007.6 +11.8
09 24.05 ЮВ 1 20 км ясно +8.8 +7.5 92 +8 +8 1023.8 1008.1
12 24.05 ЮВ 1 20 км ясно +11.4 +8.2 81 +11 +13 1024.6 1008.9 +8.5
15 24.05 СВ 1 20 км ясно +19.0 +11.0 60 +21 +32 комфорт 1024.8 1000.9
18 24.05 Ю 2 20 км ясно +21.4 +8.2 43 +23 +31 комфорт 1021.9 1006.2
21 24.05 Ю 1 20 км ясно +19.8 +9.4 51 +22 +23 комфорт 1020.8 1005.2
00 25.05 штиль 0 20 км ясно +14.6 +9.2 70 +14 +14 1021.8 1006.1 +11.4
09 25.05 штиль 0 20 км ясно +8.2 +6.9 92 +7 +7 1020.8 1005.2
12 25.05 штиль 0 20 км ясно +11.4 +6.8 73 +11 +13 1022.5 1006.8 +7.4
15 25.05 штиль 0 20 км ясно +20.6 +9.0 47 +22 +35 комфорт 1021.8 1006.4
18 25.05 ЮВ 1 20 км ясно +23.2 +8.8 40 +25 +34 комфорт 1017.5 1002.1
21 25.05 штиль 0 20 км 5/0
[Ci]
+20.2 +10.3 53 +21 +22 комфорт 1018.0 1002.5
00 26.05 штиль 0 20 км 5/0
[Ci]
+14.2 +10.4 78 +14 +14 1018.7 1003.2 +11.4
09 26.05 штиль 0 20 км 4/0
[Ci]
+9.6 +8.8 95 +9 +9 1016.3 1000.8
12 26.05 штиль 0 20 км 4/0
[Ci]
+13.4 +10.8 84 +13 +15 1017.0 1001.4 +9.6
15 26.05 СВ 1 20 км 4/0
[Ci]
+24.6 +11.7 44 +26 +36 жарко 1015.5 1000.2
18 26.05 20 км 4/0
[Ci fib]
+28.2 +12.7 38 1011.9 996.6
21 26.05 В 1 20 км 4/0
[Ci fib]
+26.4 +15.7 52 +30 +30 душно 1010.7 995.4
00 27.05 штиль 0 20 км 3/0
[Ac trans]
+21.8 +16.4 71 +26 +26 душно 1012.1 996.8 +13.4

 

Местоположение метеостанции Las Lomitas (Аргентина): широта -24.70 долгота -60.58 высота над уровнем моря 130 м.

В архиве по умолчанию представлена погода в Las Lomitas за последнюю неделю. Архивные данные за месяц целиком и за предыдущие месяцы, начиная с января 2011 года, Вы можете получить, выбрав интересующий диапазон дат из раскрывающегося списка и нажав кнопку "Ввод!".


*Определитесь, кто Вы:
робот инопланетянин человек

Внимание! Время в таблицах - всемирное. Для получения местного времени необходимо прибавить поправку, которая в Las Lomitas равна -3 ч.

Смотрите также архив погоды в соседних городах и на ближайших метеорологических станциях:

Погода в Gral. Bruguez (Парагвай) (177 км)
Погода в Pozo Colorado (Парагвай) (225 км)
Погода в Presidencia Roque Saenz Pena (Аргентина) (226 км)
Погода в Prats-Gil (Парагвай) (241 км)
Погода в Formosa (Аргентина) (289 км)
Погода в Mariscal Estigar (Парагвай) (299 км)
Погода в Asuncion (Парагвай) (316 км)
Погода в Pilar (Парагвай) (330 км)
Погода в Resistencia (Аргентина) (342 км)
Погода в Corrientes (Аргентина) (356 км)

Пояснения к столбцам:

Ветер - указаны скорость ветра в м/с - средняя за 10 мин, порывы в срок и между сроками (в фигурных скобках) и направление, откуда дует ветер: С - северный, СВ - северо-восточный, В - восточный, ЮВ - юго-восточный, Ю - южный, ЮЗ - юго-западный, З - западный, СЗ - северо-западный.
Видимость - горизонтальная дальность видимости в метрах или километрах. При видимости от 1 до 10 км при отсутствии осадков обычно наблюдается дымка, при ухудшении видимости до 1 км и менее - туман. В сухую погоду видимость может ухудшаться дымом, пылью или мглою.
Явления - указаны атмосферные явления, наблюдавшиеся в срок или в последний час перед сроком; фигурными скобками обозначены явления, наблюдавшиеся между сроками (за 1-3 часа до срока); квадратными скобками обозначены град или гололедные отложения с указанием их диаметра в мм.
Облачность - указаны через наклонную черту общая и нижняя облачность в баллах и высота нижней границы облаков в метрах; квадратными скобками обозначены формы облаков: Ci - перистые, Cs - перисто-слоистые, Cc - перисто-кучевые, Ac - высококучевые, As - высокослоистые, Sc - слоисто-кучевые, Ns - слоисто-дождевые, Cu - кучевые, Cb - кучево-дождевые. Подробнее классификацию облаков см. в Атласе облаков (PDF).
T - Температура воздуха - температура, измеренная на высоте 2 м над землей.
Td - Температура точки росы - температура, при понижении до которой содержащийся в воздухе водяной пар достигнет насыщения.
f - Относительная влажность воздуха - влажноcть воздуха, измеренная на высоте 2 м над землей.
Te - Эффективная температура - температура, которую ощущает одетый по сезону человек в тени. Характеристика душности погоды. При расчете учитывается влияние влажности воздуха и скорости ветра на теплоощущения человека.
Tes - Эффективная температура на солнце - температура, которую ощущает человек, с поправкой на солнечный нагрев. Характеристика знойности погоды. Зависит от высоты солнца над горизонтом, облачности и скорости ветра. Ночью, в пасмурную погоду, а также при ветре 12 м/с и более поправка равна нулю.
P - Атмосферное давление - приведенное к уровню моря атмосферное давление.
Po - Атмосферное давление - измеренное на уровне метеостанции атмосферное давление.
Tmin - Минимальная температура - минимум температуры воздуха на высоте 2 м над землей.
Tmax - Максимальная температура - максимум температуры воздуха на высоте 2 м над землей.
R - Количество осадков - Количество выпавших осадков за период времени, мм. При наведении курсора мыши на число - период времени, за который выпало указанное количество осадков.
R24 - Количество осадков - Количество выпавших осадков за 24 часа, мм.
S - Снежный покров - Высота снежного покрова, см. При наведении курсора мыши на число - состояние снежного покрова и степень покрытия местности в баллах.